Flag for Germany Weather past 2 weeks in Neumarkt in der Oberpfalz, Bavaria, Germany

Now
58 °F

Sunny.


Feels Like: 58 °F
Forecast: 36 / 58 °F
Wind: 3 mph from North

Location: Hohenfels

Current Time: Apr 19, 2015 at 6:09:57 PM

Latest Report: Apr 19, 2015 at 5:58 PM


Visibility: N/A

Pressure: 30.15 "Hg

Humidity: 28%

Dew point: 25 °F

Location of Neumarkt in der OberpfalzLocation

Historic Weather in Neumarkt in der Oberpfalz — Graph

°F

Neumarkt in der Oberpfalz temperature yesterday

Maximum temperature yesterday: 51 °F (at 4:58 PM)
Minimum temperature yesterday: 32 °F (at 11:58 PM)
Average temperature yesterday: 41 °F

Past Weeks' High & Low Weather Summary

 TemperatureHumidityPressure
High73 °F (Apr 15, 5:58 PM)100% (Apr 9, 6:58 AM)30.66 "Hg (Apr 9, 6:58 AM)
Low25 °F (Apr 7, 6:58 AM)27% (Apr 15, 5:58 PM)29.85 "Hg (Apr 17, 2:58 AM)
Average47 °F64%30.26 "Hg
* Reported Apr 4 4:58 PM — Apr 19 4:58 PM, Neumarkt in der Oberpfalz, Weather by CustomWeather, © 2015

Note: Actual official high and low records may vary slightly from our data, if they occured in-between our weather recording intervals... More about our weather records

Advertising

Neumarkt in der Oberpfalz weather history for previous 24 hours

 ConditionsComfort  
Time TempWeatherWind HumidityBarometerVisibility
4:58 PM
Sun, Apr 19
57 °FSunny.2 mph31%30.14 "HgN/A
3:58 PM56 °FSunny.6 mph31%30.16 "HgN/A
3:04 PM55 °FSunny.9 mph31%30.13 "Hg2 mi
2:58 PM55 °FSunny.5 mph31%30.17 "HgN/A
1:58 PM54 °FSunny.6 mph33%30.18 "HgN/A
12:58 PM50 °FSunny.5 mph37%30.20 "HgN/A
11:58 AM50 °FSunny.10 mph37%30.21 "HgN/A
10:58 AM48 °FSunny.7 mph44%30.22 "HgN/A
9:58 AM44 °FSunny.6 mph54%30.23 "HgN/A
8:58 AM37 °FSunny.1 mph69%30.23 "HgN/A
7:58 AM30 °FSunny.2 mph79%30.24 "HgN/A
6:58 AM26 °FClear.1 mph87%30.25 "HgN/A
5:58 AM26 °FClear.No wind88%30.24 "HgN/A
4:58 AM27 °FClear.2 mph86%30.24 "HgN/A
3:58 AM28 °FClear.3 mph83%30.27 "HgN/A
2:58 AM28 °FClear.1 mph86%30.27 "HgN/A
1:58 AM29 °FClear.No wind80%30.28 "HgN/A
12:58 AM30 °FClear.1 mph80%30.28 "HgN/A
11:58 PM
Sat, Apr 18
32 °FClear.1 mph75%30.29 "HgN/A
10:58 PM34 °FClear.2 mph72%30.30 "HgN/A
9:58 PM37 °FClear.3 mph65%30.29 "HgN/A
8:58 PM41 °FSunny.2 mph57%30.27 "HgN/A
7:58 PM46 °FSunny.2 mph43%30.26 "HgN/A
6:58 PM50 °FScattered clouds.7 mph35%30.26 "HgN/A
Weather by CustomWeather, © 2015

See weather overviewHow to use our weather pages